Time,TemperatureF,DewpointF,PressureIn,WindDirection,WindDirectionDegrees,WindSpeedMPH,WindSpeedGustMPH,Humidity,HourlyPrecipIn,Conditions,Clouds,dailyrainin,SoftwareType,DateUTC
2013-02-20 00:03:00,19.1,9.6,30.34,NNE,13,3.0,5.0,66,0.00,,,0.00,Wunderground v.1.15,2013-02-20 06:03:00,
2013-02-20 00:09:00,19.0,9.5,30.35,ENE,67,3.0,5.0,66,0.00,,,0.00,Wunderground v.1.15,2013-02-20 06:09:00,
2013-02-20 00:14:00,18.9,9.4,30.36,ENE,66,3.0,5.0,66,0.00,,,0.00,Wunderground v.1.15,2013-02-20 06:14:00,
2013-02-20 00:20:00,18.9,9.4,30.36,East,90,4.0,4.0,66,0.00,,,0.00,Wunderground v.1.15,2013-02-20 06:20:00,
2013-02-20 00:25:00,18.9,9.4,30.36,East,80,3.0,4.0,66,0.00,,,0.00,Wunderground v.1.15,2013-02-20 06:25:00,
2013-02-20 00:31:00,18.9,9.4,30.36,East,90,3.0,7.0,66,0.00,,,0.00,Wunderground v.1.15,2013-02-20 06:31:00,
2013-02-20 00:36:00,18.8,9.6,30.36,East,99,4.0,7.0,67,0.00,,,0.00,Wunderground v.1.15,2013-02-20 06:36:00,
2013-02-20 00:42:00,18.7,9.6,30.36,ENE,76,3.0,7.0,67,0.00,,,0.00,Wunderground v.1.15,2013-02-20 06:42:00,
2013-02-20 00:48:00,18.6,9.1,30.36,East,88,2.0,7.0,66,0.00,,,0.00,Wunderground v.1.15,2013-02-20 06:48:00,
2013-02-20 00:53:00,18.5,9.4,30.36,ESE,123,3.0,7.0,67,0.00,,,0.00,Wunderground v.1.15,2013-02-20 06:53:00,
2013-02-20 00:59:00,18.4,8.9,30.36,NE,55,4.0,8.0,66,0.00,,,0.00,Wunderground v.1.15,2013-02-20 06:59:00,
2013-02-20 01:04:00,18.3,9.5,30.35,ENE,62,4.0,8.0,68,0.00,,,0.00,Wunderground v.1.15,2013-02-20 07:04:00,
2013-02-20 01:10:00,18.2,9.1,30.35,NE,42,5.0,7.0,67,0.00,,,0.00,Wunderground v.1.15,2013-02-20 07:10:00,
2013-02-20 01:15:00,18.2,9.1,30.36,ENE,59,6.0,10.0,67,0.00,,,0.00,Wunderground v.1.15,2013-02-20 07:15:00,
2013-02-20 01:21:00,18.1,9.3,30.36,NE,49,5.0,7.0,68,0.00,,,0.00,Wunderground v.1.15,2013-02-20 07:21:00,
2013-02-20 01:26:00,18.1,9.0,30.36,NE,50,5.0,8.0,67,0.00,,,0.00,Wunderground v.1.15,2013-02-20 07:26:00,
2013-02-20 01:32:00,18.0,9.2,30.36,ENE,78,6.0,7.0,68,0.00,,,0.00,Wunderground v.1.15,2013-02-20 07:32:00,
2013-02-20 01:37:00,17.9,9.4,30.36,NE,47,6.0,8.0,69,0.00,,,0.00,Wunderground v.1.15,2013-02-20 07:37:00,
2013-02-20 01:42:00,17.9,9.1,30.36,ENE,75,7.0,8.0,68,0.00,,,0.00,Wunderground v.1.15,2013-02-20 07:42:00,
2013-02-20 01:48:00,17.8,8.7,30.36,NE,52,8.0,9.0,67,0.00,,,0.00,Wunderground v.1.15,2013-02-20 07:48:00,
2013-02-20 01:54:00,17.7,8.6,30.37,ENE,59,9.0,12.0,67,0.00,,,0.00,Wunderground v.1.15,2013-02-20 07:54:00,
2013-02-20 01:59:00,17.7,8.6,30.37,NNE,17,9.0,12.0,67,0.00,,,0.00,Wunderground v.1.15,2013-02-20 07:59:00,
2013-02-20 02:05:00,17.5,8.1,30.37,NE,54,9.0,11.0,66,0.00,,,0.00,Wunderground v.1.15,2013-02-20 08:05:00,
2013-02-20 02:10:00,17.4,8.3,30.38,NE,53,8.0,8.0,67,0.00,,,0.00,Wunderground v.1.15,2013-02-20 08:10:00,
2013-02-20 02:18:00,17.2,8.1,30.38,ENE,76,7.0,10.0,67,0.00,,,0.00,Wunderground v.1.15,2013-02-20 08:18:00,
2013-02-20 02:23:00,17.1,8.3,30.38,NE,49,7.0,9.0,68,0.00,,,0.00,Wunderground v.1.15,2013-02-20 08:23:00,
2013-02-20 02:29:00,17.0,8.3,30.37,ENE,65,7.0,9.0,68,0.00,,,0.00,Wunderground v.1.15,2013-02-20 08:29:00,
2013-02-20 02:35:00,16.8,8.1,30.37,ENE,66,8.0,10.0,68,0.00,,,0.00,Wunderground v.1.15,2013-02-20 08:35:00,
2013-02-20 02:40:00,16.7,8.3,30.37,ENE,63,7.0,7.0,69,0.00,,,0.00,Wunderground v.1.15,2013-02-20 08:40:00,
2013-02-20 02:46:00,16.7,8.6,30.36,ENE,71,8.0,8.0,70,0.00,,,0.00,Wunderground v.1.15,2013-02-20 08:46:00,
2013-02-20 02:51:00,16.6,8.5,30.36,NE,55,8.0,10.0,70,0.00,,,0.00,Wunderground v.1.15,2013-02-20 08:51:00,
2013-02-20 02:57:00,16.4,8.3,30.36,ENE,78,8.0,10.0,70,0.00,,,0.00,Wunderground v.1.15,2013-02-20 08:57:00,
2013-02-20 03:02:00,16.2,8.4,30.36,ENE,74,7.0,7.0,71,0.00,,,0.00,Wunderground v.1.15,2013-02-20 09:02:00,
2013-02-20 03:08:00,16.0,8.6,30.36,ENE,70,7.0,9.0,72,0.00,,,0.00,Wunderground v.1.15,2013-02-20 09:08:00,
2013-02-20 03:13:00,15.9,8.2,30.36,NE,54,7.0,8.0,71,0.00,,,0.00,Wunderground v.1.15,2013-02-20 09:13:00,
2013-02-20 03:18:00,15.8,8.1,30.36,East,90,7.0,9.0,71,0.00,,,0.00,Wunderground v.1.15,2013-02-20 09:18:00,
2013-02-20 03:24:00,15.6,8.2,30.36,East,87,6.0,11.0,72,0.00,,,0.00,Wunderground v.1.15,2013-02-20 09:24:00,
2013-02-20 03:33:00,15.4,8.0,30.36,NE,49,7.0,7.0,72,0.00,,,0.00,Wunderground v.1.15,2013-02-20 09:33:00,
2013-02-20 03:39:00,15.2,7.8,30.36,East,85,6.0,7.0,72,0.00,,,0.00,Wunderground v.1.15,2013-02-20 09:39:00,
2013-02-20 03:45:00,15.0,8.2,30.36,East,87,6.0,8.0,74,0.00,,,0.00,Wunderground v.1.15,2013-02-20 09:45:00,
2013-02-20 03:51:00,14.7,7.9,30.35,East,82,6.0,9.0,74,0.00,,,0.00,Wunderground v.1.15,2013-02-20 09:51:00,
2013-02-20 03:56:00,14.5,8.0,30.35,ENE,69,7.0,9.0,75,0.00,,,0.00,Wunderground v.1.15,2013-02-20 09:56:00,
2013-02-20 04:01:00,14.1,7.3,30.35,ENE,72,7.0,8.0,74,0.00,,,0.00,Wunderground v.1.15,2013-02-20 10:01:00,
2013-02-20 04:07:00,13.9,7.1,30.35,ENE,78,7.0,10.0,74,0.00,,,0.00,Wunderground v.1.15,2013-02-20 10:07:00,
2013-02-20 04:13:00,13.6,6.8,30.36,ENE,73,8.0,9.0,74,0.00,,,0.00,Wunderground v.1.15,2013-02-20 10:13:00,
2013-02-20 04:18:00,13.4,7.0,30.36,ENE,71,7.0,9.0,75,0.00,,,0.00,Wunderground v.1.15,2013-02-20 10:18:00,
2013-02-20 04:23:00,13.1,6.7,30.36,ENE,77,7.0,11.0,75,0.00,,,0.00,Wunderground v.1.15,2013-02-20 10:23:00,
2013-02-20 04:29:00,12.8,6.1,30.36,NE,49,8.0,11.0,74,0.00,,,0.00,Wunderground v.1.15,2013-02-20 10:29:00,
2013-02-20 04:34:00,12.6,5.9,30.36,East,88,7.0,9.0,74,0.00,,,0.00,Wunderground v.1.15,2013-02-20 10:34:00,
2013-02-20 04:40:00,12.4,6.0,30.38,ENE,64,6.0,7.0,75,0.00,,,0.00,Wunderground v.1.15,2013-02-20 10:40:00,
2013-02-20 04:46:00,12.3,5.9,30.38,ENE,78,5.0,7.0,75,0.00,,,0.00,Wunderground v.1.15,2013-02-20 10:46:00,
2013-02-20 04:51:00,12.3,6.2,30.38,NE,54,4.0,7.0,76,0.00,,,0.00,Wunderground v.1.15,2013-02-20 10:51:00,
2013-02-20 04:57:00,12.2,6.1,30.38,East,82,4.0,7.0,76,0.00,,,0.00,Wunderground v.1.15,2013-02-20 10:57:00,
2013-02-20 05:02:00,12.1,6.0,30.38,ENE,67,4.0,7.0,76,0.00,,,0.00,Wunderground v.1.15,2013-02-20 11:02:00,
2013-02-20 05:08:00,11.9,6.1,30.38,East,85,5.0,7.0,77,0.00,,,0.00,Wunderground v.1.15,2013-02-20 11:08:00,
2013-02-20 05:13:00,11.9,6.1,30.38,East,86,5.0,7.0,77,0.00,,,0.00,Wunderground v.1.15,2013-02-20 11:13:00,
2013-02-20 05:20:00,11.7,5.9,30.39,East,93,5.0,7.0,77,0.00,,,0.00,Wunderground v.1.15,2013-02-20 11:20:00,
2013-02-20 05:26:00,11.4,5.3,30.39,East,90,6.0,7.0,76,0.00,,,0.00,Wunderground v.1.15,2013-02-20 11:26:00,
2013-02-20 05:31:00,11.2,5.1,30.39,ENE,76,5.0,7.0,76,0.00,,,0.00,Wunderground v.1.15,2013-02-20 11:31:00,
2013-02-20 05:37:00,11.0,4.9,30.40,ENE,69,4.0,7.0,76,0.00,,,0.00,Wunderground v.1.15,2013-02-20 11:37:00,
2013-02-20 05:42:00,10.9,4.8,30.40,East,99,4.0,7.0,76,0.00,,,0.00,Wunderground v.1.15,2013-02-20 11:42:00,
2013-02-20 05:47:00,10.9,5.1,30.40,East,84,5.0,7.0,77,0.00,,,0.00,Wunderground v.1.15,2013-02-20 11:47:00,
2013-02-20 05:57:00,10.7,4.9,30.41,East,84,4.0,7.0,77,0.00,,,0.00,Wunderground v.1.15,2013-02-20 11:57:00,
2013-02-20 06:03:00,10.5,4.7,30.41,ENE,76,4.0,8.0,77,0.00,,,0.00,Wunderground v.1.15,2013-02-20 12:03:00,
2013-02-20 06:08:00,10.3,4.2,30.41,East,84,5.0,8.0,76,0.00,,,0.00,Wunderground v.1.15,2013-02-20 12:08:00,
2013-02-20 06:14:00,10.1,4.3,30.42,East,100,5.0,7.0,77,0.00,,,0.00,Wunderground v.1.15,2013-02-20 12:14:00,
2013-02-20 06:19:00,10.0,3.9,30.41,East,83,6.0,7.0,76,0.00,,,0.00,Wunderground v.1.15,2013-02-20 12:19:00,
2013-02-20 06:25:00,9.8,3.7,30.41,East,84,5.0,7.0,76,0.00,,,0.00,Wunderground v.1.15,2013-02-20 12:25:00,
2013-02-20 06:30:00,9.7,3.7,30.41,East,101,5.0,5.0,76,0.00,,,0.00,Wunderground v.1.15,2013-02-20 12:30:00,
2013-02-20 06:36:00,9.6,3.3,30.41,ENE,75,5.0,7.0,75,0.00,,,0.00,Wunderground v.1.15,2013-02-20 12:36:00,
2013-02-20 06:41:00,9.4,3.4,30.41,East,101,5.0,7.0,76,0.00,,,0.00,Wunderground v.1.15,2013-02-20 12:41:00,
2013-02-20 06:47:00,9.4,3.4,30.41,ESE,102,6.0,7.0,76,0.00,,,0.00,Wunderground v.1.15,2013-02-20 12:47:00,
2013-02-20 06:52:00,9.4,3.4,30.41,East,94,5.0,7.0,76,0.00,,,0.00,Wunderground v.1.15,2013-02-20 12:52:00,
2013-02-20 07:02:00,9.2,3.2,30.42,East,98,5.0,7.0,76,0.00,,,0.00,Wunderground v.1.15,2013-02-20 13:02:00,
2013-02-20 07:07:00,9.3,3.5,30.42,East,84,5.0,7.0,77,0.00,,,0.00,Wunderground v.1.15,2013-02-20 13:07:00,
2013-02-20 07:13:00,9.4,3.6,30.42,East,80,5.0,7.0,77,0.00,,,0.00,Wunderground v.1.15,2013-02-20 13:13:00,
2013-02-20 07:19:00,9.4,3.4,30.41,East,87,5.0,8.0,76,0.00,,,0.00,Wunderground v.1.15,2013-02-20 13:19:00,
2013-02-20 07:24:00,9.4,3.4,30.41,ENE,74,6.0,7.0,76,0.00,,,0.00,Wunderground v.1.15,2013-02-20 13:24:00,
2013-02-20 07:30:00,9.4,3.4,30.41,East,93,6.0,8.0,76,0.00,,,0.00,Wunderground v.1.15,2013-02-20 13:30:00,
2013-02-20 07:35:00,9.4,3.1,30.41,East,97,7.0,8.0,75,0.00,,,0.00,Wunderground v.1.15,2013-02-20 13:35:00,
2013-02-20 07:42:00,9.5,3.2,30.42,East,100,7.0,8.0,75,0.00,,,0.00,Wunderground v.1.15,2013-02-20 13:42:00,
2013-02-20 07:48:00,9.4,2.8,30.42,ESE,103,8.0,9.0,74,0.00,,,0.00,Wunderground v.1.15,2013-02-20 13:48:00,
2013-02-20 07:54:00,9.5,2.9,30.43,ENE,74,7.0,8.0,74,0.00,,,0.00,Wunderground v.1.15,2013-02-20 13:54:00,
2013-02-20 08:00:00,9.8,3.2,30.43,East,94,7.0,7.0,74,0.00,,,0.00,Wunderground v.1.15,2013-02-20 14:00:00,
2013-02-20 08:05:00,10.0,3.7,30.43,East,85,6.0,7.0,75,0.00,,,0.00,Wunderground v.1.15,2013-02-20 14:05:00,
2013-02-20 08:11:00,10.2,3.6,30.43,East,92,6.0,7.0,74,0.00,,,0.00,Wunderground v.1.15,2013-02-20 14:11:00,
2013-02-20 08:16:00,10.3,3.9,30.44,East,99,5.0,7.0,75,0.00,,,0.00,Wunderground v.1.15,2013-02-20 14:16:00,
2013-02-20 08:22:00,10.1,3.2,30.44,ENE,58,4.0,7.0,73,0.00,,,0.00,Wunderground v.1.15,2013-02-20 14:22:00,
2013-02-20 08:27:00,10.3,3.7,30.45,NE,55,3.0,7.0,74,0.00,,,0.00,Wunderground v.1.15,2013-02-20 14:27:00,
2013-02-20 08:33:00,10.5,3.6,30.46,East,93,2.0,7.0,73,0.00,,,0.00,Wunderground v.1.15,2013-02-20 14:33:00,
2013-02-20 08:38:00,10.7,3.7,30.46,SE,134,2.0,7.0,73,0.00,,,0.00,Wunderground v.1.15,2013-02-20 14:38:00,
2013-02-20 08:44:00,11.2,4.5,30.46,ENE,59,2.0,7.0,74,0.00,,,0.00,Wunderground v.1.15,2013-02-20 14:44:00,
2013-02-20 08:49:00,11.2,3.9,30.46,East,88,2.0,7.0,72,0.00,,,0.00,Wunderground v.1.15,2013-02-20 14:49:00,
2013-02-20 08:55:00,11.6,4.3,30.46,East,80,1.0,7.0,72,0.00,,,0.00,Wunderground v.1.15,2013-02-20 14:55:00,
2013-02-20 09:04:00,12.3,5.0,30.46,NE,42,2.0,7.0,72,0.00,,,0.00,Wunderground v.1.15,2013-02-20 15:04:00,
2013-02-20 09:10:00,12.6,5.3,30.46,NE,44,2.0,7.0,72,0.00,,,0.00,Wunderground v.1.15,2013-02-20 15:10:00,
2013-02-20 09:15:00,12.7,5.4,30.46,NE,42,1.0,7.0,72,0.00,,,0.00,Wunderground v.1.15,2013-02-20 15:15:00,
2013-02-20 09:21:00,13.5,6.1,30.46,North,5,1.0,1.0,72,0.00,,,0.00,Wunderground v.1.15,2013-02-20 15:21:00,
2013-02-20 09:26:00,13.8,6.1,30.46,ENE,76,1.0,7.0,71,0.00,,,0.00,Wunderground v.1.15,2013-02-20 15:26:00,
2013-02-20 09:32:00,13.2,4.9,30.46,ENE,64,3.0,7.0,69,0.00,,,0.00,Wunderground v.1.15,2013-02-20 15:32:00,
2013-02-20 09:37:00,13.1,5.1,30.45,ENE,69,2.0,7.0,70,0.00,,,0.00,Wunderground v.1.15,2013-02-20 15:37:00,
2013-02-20 09:43:00,13.2,5.2,30.45,North,351,1.0,7.0,70,0.00,,,0.00,Wunderground v.1.15,2013-02-20 15:43:00,
2013-02-20 09:48:00,13.3,5.3,30.45,ESE,110,1.0,7.0,70,0.00,,,0.00,Wunderground v.1.15,2013-02-20 15:48:00,
2013-02-20 09:54:00,13.7,5.7,30.45,NNE,21,2.0,7.0,70,0.00,,,0.00,Wunderground v.1.15,2013-02-20 15:54:00,
2013-02-20 09:59:00,14.0,5.7,30.45,ENE,63,2.0,7.0,69,0.00,,,0.00,Wunderground v.1.15,2013-02-20 15:59:00,
2013-02-20 10:05:00,14.1,6.1,30.45,ESE,103,2.0,7.0,70,0.00,,,0.00,Wunderground v.1.15,2013-02-20 16:05:00,
2013-02-20 10:10:00,14.5,6.5,30.45,ENE,74,2.0,7.0,70,0.00,,,0.00,Wunderground v.1.15,2013-02-20 16:10:00,
2013-02-20 10:16:00,14.7,6.4,30.46,East,98,3.0,7.0,69,0.00,,,0.00,Wunderground v.1.15,2013-02-20 16:16:00,
2013-02-20 10:21:00,14.8,6.1,30.47,ENE,74,2.0,7.0,68,0.00,,,0.00,Wunderground v.1.15,2013-02-20 16:21:00,
2013-02-20 10:27:00,15.3,6.6,30.46,ESE,113,1.0,7.0,68,0.00,,,0.00,Wunderground v.1.15,2013-02-20 16:27:00,
2013-02-20 10:32:00,16.1,7.7,30.47,SW,215,1.0,7.0,69,0.00,,,0.00,Wunderground v.1.15,2013-02-20 16:32:00,
2013-02-20 10:38:00,16.2,7.5,30.47,SW,215,1.0,7.0,68,0.00,,,0.00,Wunderground v.1.15,2013-02-20 16:38:00,
2013-02-20 10:44:00,16.0,6.6,30.48,East,94,1.0,7.0,66,0.00,,,0.00,Wunderground v.1.15,2013-02-20 16:44:00,
2013-02-20 10:49:00,16.0,6.6,30.48,East,82,1.0,7.0,66,0.00,,,0.00,Wunderground v.1.15,2013-02-20 16:49:00,
2013-02-20 10:55:00,16.2,7.2,30.47,WSW,254,1.0,7.0,67,0.00,,,0.00,Wunderground v.1.15,2013-02-20 16:55:00,
2013-02-20 11:00:00,16.3,6.9,30.47,WSW,254,1.0,1.0,66,0.00,,,0.00,Wunderground v.1.15,2013-02-20 17:00:00,
2013-02-20 11:06:00,16.1,6.7,30.47,ENE,65,2.0,7.0,66,0.00,,,0.00,Wunderground v.1.15,2013-02-20 17:06:00,
2013-02-20 11:12:00,16.2,7.5,30.47,ENE,63,3.0,7.0,68,0.00,,,0.00,Wunderground v.1.15,2013-02-20 17:12:00,
2013-02-20 11:17:00,16.2,7.2,30.47,ENE,60,3.0,7.0,67,0.00,,,0.00,Wunderground v.1.15,2013-02-20 17:17:00,
2013-02-20 11:23:00,16.2,7.2,30.47,East,80,2.0,7.0,67,0.00,,,0.00,Wunderground v.1.15,2013-02-20 17:23:00,
2013-02-20 11:28:00,16.6,8.2,30.47,East,95,3.0,7.0,69,0.00,,,0.00,Wunderground v.1.15,2013-02-20 17:28:00,
2013-02-20 11:34:00,16.8,7.4,30.47,ENE,63,4.0,7.0,66,0.00,,,0.00,Wunderground v.1.15,2013-02-20 17:34:00,
2013-02-20 11:39:00,16.9,7.8,30.46,ENE,74,3.0,7.0,67,0.00,,,0.00,Wunderground v.1.15,2013-02-20 17:39:00,
2013-02-20 11:45:00,17.0,8.3,30.45,East,99,2.0,7.0,68,0.00,,,0.00,Wunderground v.1.15,2013-02-20 17:45:00,
2013-02-20 11:51:00,17.3,8.9,30.45,ESE,118,3.0,7.0,69,0.00,,,0.00,Wunderground v.1.15,2013-02-20 17:51:00,
2013-02-20 11:56:00,17.3,8.5,30.44,ESE,109,4.0,7.0,68,0.00,,,0.00,Wunderground v.1.15,2013-02-20 17:56:00,
2013-02-20 12:02:00,17.6,9.2,30.44,East,93,5.0,7.0,69,0.00,,,0.00,Wunderground v.1.15,2013-02-20 18:02:00,
2013-02-20 12:07:00,17.5,8.4,30.44,East,94,6.0,8.0,67,0.00,,,0.00,Wunderground v.1.15,2013-02-20 18:07:00,
2013-02-20 12:13:00,17.7,9.2,30.44,ESE,109,5.0,7.0,69,0.00,,,0.00,Wunderground v.1.15,2013-02-20 18:13:00,
2013-02-20 12:18:00,17.8,9.0,30.43,ESE,104,4.0,7.0,68,0.00,,,0.00,Wunderground v.1.15,2013-02-20 18:18:00,
2013-02-20 12:24:00,18.0,9.5,30.43,East,97,5.0,7.0,69,0.00,,,0.00,Wunderground v.1.15,2013-02-20 18:24:00,
2013-02-20 12:29:00,18.2,9.1,30.43,ESE,119,5.0,7.0,67,0.00,,,0.00,Wunderground v.1.15,2013-02-20 18:29:00,
2013-02-20 12:35:00,18.4,8.9,30.43,ESE,114,5.0,7.0,66,0.00,,,0.00,Wunderground v.1.15,2013-02-20 18:35:00,
2013-02-20 12:40:00,18.3,8.5,30.42,ESE,119,3.0,7.0,65,0.00,,,0.00,Wunderground v.1.15,2013-02-20 18:40:00,
2013-02-20 12:45:00,18.5,9.4,30.42,ENE,77,3.0,7.0,67,0.00,,,0.00,Wunderground v.1.15,2013-02-20 18:45:00,
2013-02-20 12:51:00,18.7,9.6,30.42,East,99,4.0,7.0,67,0.00,,,0.00,Wunderground v.1.15,2013-02-20 18:51:00,
2013-02-20 12:57:00,18.6,9.1,30.42,East,97,3.0,7.0,66,0.00,,,0.00,Wunderground v.1.15,2013-02-20 18:57:00,
2013-02-20 13:02:00,18.8,9.3,30.41,East,81,4.0,7.0,66,0.00,,,0.00,Wunderground v.1.15,2013-02-20 19:02:00,
2013-02-20 13:08:00,18.9,9.4,30.41,ESE,111,4.0,7.0,66,0.00,,,0.00,Wunderground v.1.15,2013-02-20 19:08:00,
2013-02-20 13:13:00,18.9,9.4,30.40,ESE,116,4.0,7.0,66,0.00,,,0.00,Wunderground v.1.15,2013-02-20 19:13:00,
2013-02-20 13:19:00,19.0,9.8,30.40,SE,132,4.0,7.0,67,0.00,,,0.00,Wunderground v.1.15,2013-02-20 19:19:00,
2013-02-20 13:24:00,19.3,10.1,30.40,SE,140,4.0,7.0,67,0.00,,,0.00,Wunderground v.1.15,2013-02-20 19:24:00,
2013-02-20 13:33:00,19.2,10.0,30.39,ESE,107,4.0,7.0,67,0.00,,,0.00,Wunderground v.1.15,2013-02-20 19:33:00,
2013-02-20 13:39:00,19.4,10.2,30.40,SE,130,4.0,7.0,67,0.00,,,0.00,Wunderground v.1.15,2013-02-20 19:39:00,
2013-02-20 13:45:00,19.4,9.9,30.40,East,98,3.0,7.0,66,0.00,,,0.00,Wunderground v.1.15,2013-02-20 19:45:00,
2013-02-20 13:51:00,19.6,10.4,30.40,East,97,3.0,7.0,67,0.00,,,0.00,Wunderground v.1.15,2013-02-20 19:51:00,
2013-02-20 13:56:00,19.9,10.7,30.40,ESE,120,4.0,7.0,67,0.00,,,0.00,Wunderground v.1.15,2013-02-20 19:56:00,
2013-02-20 14:01:00,19.9,10.0,30.39,East,97,3.0,7.0,65,0.00,,,0.00,Wunderground v.1.15,2013-02-20 20:01:00,
2013-02-20 14:07:00,19.7,9.8,30.40,SE,131,2.0,7.0,65,0.00,,,0.00,Wunderground v.1.15,2013-02-20 20:07:00,
2013-02-20 14:12:00,19.9,10.4,30.39,ESE,113,2.0,7.0,66,0.00,,,0.00,Wunderground v.1.15,2013-02-20 20:12:00,
2013-02-20 14:18:00,19.9,10.7,30.39,SE,129,3.0,7.0,67,0.00,,,0.00,Wunderground v.1.15,2013-02-20 20:18:00,
2013-02-20 14:24:00,20.0,10.8,30.39,East,98,4.0,7.0,67,0.00,,,0.00,Wunderground v.1.15,2013-02-20 20:24:00,
2013-02-20 14:29:00,20.1,11.6,30.38,East,101,4.0,7.0,69,0.00,,,0.00,Wunderground v.1.15,2013-02-20 20:29:00,
2013-02-20 14:35:00,20.2,11.3,30.38,ESE,107,5.0,8.0,68,0.00,,,0.00,Wunderground v.1.15,2013-02-20 20:35:00,
2013-02-20 14:40:00,20.2,11.0,30.39,ESE,119,5.0,5.0,67,0.00,,,0.00,Wunderground v.1.15,2013-02-20 20:40:00,
2013-02-20 14:45:00,20.3,10.7,30.38,SE,130,5.0,7.0,66,0.00,,,0.00,Wunderground v.1.15,2013-02-20 20:45:00,
2013-02-20 14:51:00,20.2,10.6,30.38,SE,134,5.0,7.0,66,0.00,,,0.00,Wunderground v.1.15,2013-02-20 20:51:00,
2013-02-20 14:56:00,20.3,11.1,30.38,SE,132,5.0,7.0,67,0.00,,,0.00,Wunderground v.1.15,2013-02-20 20:56:00,
2013-02-20 15:05:00,20.3,11.1,30.38,ESE,121,3.0,7.0,67,0.00,,,0.00,Wunderground v.1.15,2013-02-20 21:05:00,
2013-02-20 15:11:00,20.4,10.8,30.38,ESE,121,4.0,7.0,66,0.00,,,0.00,Wunderground v.1.15,2013-02-20 21:11:00,
2013-02-20 15:16:00,20.4,10.5,30.38,ESE,109,5.0,7.0,65,0.00,,,0.00,Wunderground v.1.15,2013-02-20 21:16:00,
2013-02-20 15:22:00,20.4,11.2,30.38,ESE,118,5.0,7.0,67,0.00,,,0.00,Wunderground v.1.15,2013-02-20 21:22:00,
2013-02-20 15:28:00,20.5,11.3,30.38,ESE,119,5.0,7.0,67,0.00,,,0.00,Wunderground v.1.15,2013-02-20 21:28:00,
2013-02-20 15:33:00,20.6,11.7,30.38,ESE,102,5.0,7.0,68,0.00,,,0.00,Wunderground v.1.15,2013-02-20 21:33:00,
2013-02-20 15:39:00,20.7,12.1,30.37,ESE,121,5.0,7.0,69,0.00,,,0.00,Wunderground v.1.15,2013-02-20 21:39:00,
2013-02-20 15:44:00,20.8,11.9,30.37,ESE,117,5.0,7.0,68,0.00,,,0.00,Wunderground v.1.15,2013-02-20 21:44:00,
2013-02-20 15:50:00,20.7,11.8,30.37,ESE,103,5.0,7.0,68,0.00,,,0.00,Wunderground v.1.15,2013-02-20 21:50:00,
2013-02-20 15:55:00,20.9,12.3,30.38,ESE,105,5.0,7.0,69,0.00,,,0.00,Wunderground v.1.15,2013-02-20 21:55:00,
2013-02-20 16:01:00,20.8,12.2,30.37,ESE,113,5.0,7.0,69,0.00,,,0.00,Wunderground v.1.15,2013-02-20 22:01:00,
2013-02-20 16:06:00,20.8,12.2,30.37,ESE,111,5.0,7.0,69,0.00,,,0.00,Wunderground v.1.15,2013-02-20 22:06:00,
2013-02-20 16:12:00,20.8,12.2,30.37,ESE,122,5.0,10.0,69,0.00,,,0.00,Wunderground v.1.15,2013-02-20 22:12:00,
2013-02-20 16:18:00,20.8,12.2,30.36,ESE,116,6.0,10.0,69,0.00,,,0.00,Wunderground v.1.15,2013-02-20 22:18:00,
2013-02-20 16:24:00,20.8,11.9,30.36,ESE,115,6.0,9.0,68,0.00,,,0.00,Wunderground v.1.15,2013-02-20 22:24:00,
2013-02-20 16:29:00,20.7,11.8,30.36,ESE,111,8.0,9.0,68,0.00,,,0.00,Wunderground v.1.15,2013-02-20 22:29:00,
2013-02-20 16:35:00,20.6,11.7,30.36,ESE,103,8.0,9.0,68,0.00,,,0.00,Wunderground v.1.15,2013-02-20 22:35:00,
2013-02-20 16:41:00,20.6,12.0,30.36,ESE,114,8.0,8.0,69,0.00,,,0.00,Wunderground v.1.15,2013-02-20 22:41:00,
2013-02-20 16:46:00,20.6,12.0,30.35,ESE,111,7.0,8.0,69,0.00,,,0.00,Wunderground v.1.15,2013-02-20 22:46:00,
2013-02-20 16:51:00,20.7,12.8,30.35,SE,127,7.0,7.0,71,0.00,,,0.00,Wunderground v.1.15,2013-02-20 22:51:00,
2013-02-20 16:57:00,20.6,12.4,30.35,ESE,105,8.0,9.0,70,0.00,,,0.00,Wunderground v.1.15,2013-02-20 22:57:00,
2013-02-20 17:03:00,20.6,12.4,30.35,SE,124,7.0,9.0,70,0.00,,,0.00,Wunderground v.1.15,2013-02-20 23:03:00,
2013-02-20 17:08:00,20.7,12.5,30.35,ESE,103,7.0,9.0,70,0.00,,,0.00,Wunderground v.1.15,2013-02-20 23:08:00,
2013-02-20 17:13:00,20.7,12.8,30.35,ESE,118,7.0,9.0,71,0.00,,,0.00,Wunderground v.1.15,2013-02-20 23:13:00,
2013-02-20 17:19:00,20.6,12.0,30.35,ESE,108,7.0,9.0,69,0.00,,,0.00,Wunderground v.1.15,2013-02-20 23:19:00,
2013-02-20 17:25:00,20.7,13.4,30.35,SE,124,6.0,7.0,73,0.00,,,0.00,Wunderground v.1.15,2013-02-20 23:25:00,
2013-02-20 17:30:00,20.6,12.4,30.34,ESE,115,6.0,9.0,70,0.00,,,0.00,Wunderground v.1.15,2013-02-20 23:30:00,
2013-02-20 17:36:00,20.4,12.2,30.34,ESE,119,7.0,9.0,70,0.00,,,0.00,Wunderground v.1.15,2013-02-20 23:36:00,
2013-02-20 17:41:00,20.5,12.6,30.34,SE,125,7.0,10.0,71,0.00,,,0.00,Wunderground v.1.15,2013-02-20 23:41:00,
2013-02-20 17:47:00,20.4,12.8,30.33,ESE,106,8.0,10.0,72,0.00,,,0.00,Wunderground v.1.15,2013-02-20 23:47:00,
2013-02-20 17:52:00,20.4,12.8,30.33,ESE,112,9.0,9.0,72,0.00,,,0.00,Wunderground v.1.15,2013-02-20 23:52:00,
2013-02-20 17:58:00,20.3,12.7,30.34,ESE,122,8.0,9.0,72,0.00,,,0.00,Wunderground v.1.15,2013-02-20 23:58:00,
2013-02-20 18:04:00,20.3,12.7,30.34,ESE,119,8.0,8.0,72,0.00,,,0.00,Wunderground v.1.15,2013-02-21 00:04:00,
2013-02-20 18:10:00,20.5,13.5,30.33,ESE,105,8.0,9.0,74,0.00,,,0.00,Wunderground v.1.15,2013-02-21 00:10:00,
2013-02-20 18:16:00,20.5,13.5,30.34,ESE,116,8.0,9.0,74,0.00,,,0.00,Wunderground v.1.15,2013-02-21 00:16:00,
2013-02-20 18:21:00,20.4,13.4,30.33,ESE,120,7.0,7.0,74,0.00,,,0.00,Wunderground v.1.15,2013-02-21 00:21:00,
2013-02-20 18:27:00,20.4,13.7,30.33,ESE,115,7.0,9.0,75,0.00,,,0.00,Wunderground v.1.15,2013-02-21 00:27:00,
2013-02-20 18:32:00,20.5,13.8,30.33,ESE,114,7.0,8.0,75,0.00,,,0.00,Wunderground v.1.15,2013-02-21 00:32:00,
2013-02-20 18:38:00,20.4,13.7,30.33,ESE,112,7.0,8.0,75,0.00,,,0.00,Wunderground v.1.15,2013-02-21 00:38:00,
2013-02-20 18:43:00,20.4,13.7,30.34,ESE,115,6.0,7.0,75,0.00,,,0.00,Wunderground v.1.15,2013-02-21 00:43:00,
2013-02-20 18:49:00,20.5,13.8,30.33,ESE,112,6.0,7.0,75,0.00,,,0.00,Wunderground v.1.15,2013-02-21 00:49:00,
2013-02-20 18:54:00,20.6,14.2,30.33,ESE,116,6.0,7.0,76,0.00,,,0.00,Wunderground v.1.15,2013-02-21 00:54:00,
2013-02-20 19:00:00,20.7,14.0,30.34,ESE,111,6.0,6.0,75,0.00,,,0.00,Wunderground v.1.15,2013-02-21 01:00:00,
2013-02-20 19:05:00,20.7,14.3,30.34,ESE,113,6.0,7.0,76,0.00,,,0.00,Wunderground v.1.15,2013-02-21 01:05:00,
2013-02-20 19:11:00,20.8,14.4,30.34,ESE,116,6.0,7.0,76,0.00,,,0.00,Wunderground v.1.15,2013-02-21 01:11:00,
2013-02-20 19:17:00,20.8,14.4,30.34,SE,136,6.0,8.0,76,0.00,,,0.00,Wunderground v.1.15,2013-02-21 01:17:00,
2013-02-20 19:23:00,20.7,14.0,30.34,SE,140,7.0,8.0,75,0.00,,,0.00,Wunderground v.1.15,2013-02-21 01:23:00,
2013-02-20 19:29:00,20.6,13.9,30.33,SE,133,7.0,10.0,75,0.00,,,0.00,Wunderground v.1.15,2013-02-21 01:29:00,
2013-02-20 19:34:00,20.5,13.5,30.34,ESE,112,8.0,10.0,74,0.00,,,0.00,Wunderground v.1.15,2013-02-21 01:34:00,
2013-02-20 19:40:00,20.5,13.8,30.34,SE,129,8.0,8.0,75,0.00,,,0.00,Wunderground v.1.15,2013-02-21 01:40:00,
2013-02-20 19:46:00,20.3,13.3,30.34,ESE,115,8.0,10.0,74,0.00,,,0.00,Wunderground v.1.15,2013-02-21 01:46:00,
2013-02-20 19:51:00,20.2,13.2,30.34,SE,128,7.0,8.0,74,0.00,,,0.00,Wunderground v.1.15,2013-02-21 01:51:00,
2013-02-20 19:57:00,20.1,13.1,30.34,ESE,117,6.0,9.0,74,0.00,,,0.00,Wunderground v.1.15,2013-02-21 01:57:00,
2013-02-20 20:02:00,20.0,13.3,30.34,SE,137,5.0,7.0,75,0.00,,,0.00,Wunderground v.1.15,2013-02-21 02:02:00,
2013-02-20 20:07:00,20.0,13.3,30.34,SE,131,6.0,7.0,75,0.00,,,0.00,Wunderground v.1.15,2013-02-21 02:07:00,
2013-02-20 20:13:00,19.9,13.3,30.35,ESE,115,7.0,7.0,75,0.00,,,0.00,Wunderground v.1.15,2013-02-21 02:13:00,
2013-02-20 20:19:00,19.8,13.2,30.35,SE,137,5.0,7.0,75,0.00,,,0.00,Wunderground v.1.15,2013-02-21 02:19:00,
2013-02-20 20:25:00,19.8,13.5,30.36,ESE,119,5.0,7.0,76,0.00,,,0.00,Wunderground v.1.15,2013-02-21 02:25:00,
2013-02-20 20:30:00,19.8,13.5,30.36,ESE,121,4.0,7.0,76,0.00,,,0.00,Wunderground v.1.15,2013-02-21 02:30:00,
2013-02-20 20:40:00,19.9,13.6,30.36,East,101,5.0,5.0,76,0.00,,,0.00,Wunderground v.1.15,2013-02-21 02:40:00,
2013-02-20 20:45:00,19.8,13.8,30.37,ESE,119,5.0,7.0,77,0.00,,,0.00,Wunderground v.1.15,2013-02-21 02:45:00,
2013-02-20 20:51:00,19.7,13.7,30.37,ESE,102,5.0,7.0,77,0.00,,,0.00,Wunderground v.1.15,2013-02-21 02:51:00,
2013-02-20 20:56:00,19.7,13.7,30.37,ESE,107,4.0,7.0,77,0.00,,,0.00,Wunderground v.1.15,2013-02-21 02:56:00,
2013-02-20 21:02:00,19.6,13.6,30.37,ESE,108,3.0,7.0,77,0.00,,,0.00,Wunderground v.1.15,2013-02-21 03:02:00,
2013-02-20 21:07:00,19.6,13.9,30.37,ESE,107,3.0,7.0,78,0.00,,,0.00,Wunderground v.1.15,2013-02-21 03:07:00,
2013-02-20 21:13:00,19.7,14.0,30.37,ESE,115,4.0,7.0,78,0.00,,,0.00,Wunderground v.1.15,2013-02-21 03:13:00,
2013-02-20 21:19:00,19.8,14.0,30.37,ESE,115,5.0,7.0,78,0.00,,,0.00,Wunderground v.1.15,2013-02-21 03:19:00,
2013-02-20 21:29:00,20.0,14.2,30.37,ESE,104,6.0,7.0,78,0.00,,,0.00,Wunderground v.1.15,2013-02-21 03:29:00,
2013-02-20 21:34:00,20.0,14.2,30.36,East,98,6.0,8.0,78,0.00,,,0.00,Wunderground v.1.15,2013-02-21 03:34:00,
2013-02-20 21:40:00,20.0,14.2,30.36,ESE,110,7.0,8.0,78,0.00,,,0.00,Wunderground v.1.15,2013-02-21 03:40:00,
2013-02-20 21:45:00,20.1,14.3,30.36,ESE,119,7.0,8.0,78,0.00,,,0.00,Wunderground v.1.15,2013-02-21 03:45:00,
2013-02-20 21:51:00,20.2,14.4,30.35,East,98,7.0,7.0,78,0.00,,,0.00,Wunderground v.1.15,2013-02-21 03:51:00,
2013-02-20 21:56:00,20.1,14.0,30.36,ESE,110,7.0,8.0,77,0.00,,,0.00,Wunderground v.1.15,2013-02-21 03:56:00,
2013-02-20 22:02:00,20.2,14.4,30.35,ESE,117,7.0,7.0,78,0.00,,,0.00,Wunderground v.1.15,2013-02-21 04:02:00,
2013-02-20 22:07:00,20.2,14.4,30.35,ESE,105,7.0,9.0,78,0.00,,,0.00,Wunderground v.1.15,2013-02-21 04:07:00,
2013-02-20 22:13:00,20.1,14.3,30.35,ESE,120,8.0,9.0,78,0.00,,,0.00,Wunderground v.1.15,2013-02-21 04:13:00,
2013-02-20 22:19:00,20.0,14.2,30.35,ESE,105,8.0,9.0,78,0.00,,,0.00,Wunderground v.1.15,2013-02-21 04:19:00,
2013-02-20 22:24:00,20.0,14.5,30.35,ESE,116,8.0,9.0,79,0.00,,,0.00,Wunderground v.1.15,2013-02-21 04:24:00,
2013-02-20 22:30:00,19.9,14.4,30.35,ESE,117,7.0,7.0,79,0.00,,,0.00,Wunderground v.1.15,2013-02-21 04:30:00,
2013-02-20 22:35:00,19.8,14.6,30.35,ESE,117,6.0,7.0,80,0.00,,,0.00,Wunderground v.1.15,2013-02-21 04:35:00,
2013-02-20 22:41:00,19.8,14.6,30.35,SE,127,6.0,7.0,80,0.00,,,0.00,Wunderground v.1.15,2013-02-21 04:41:00,
2013-02-20 22:46:00,19.9,14.7,30.35,ESE,119,6.0,8.0,80,0.00,,,0.00,Wunderground v.1.15,2013-02-21 04:46:00,
2013-02-20 22:52:00,19.9,14.7,30.35,ESE,119,6.0,7.0,80,0.00,,,0.00,Wunderground v.1.15,2013-02-21 04:52:00,
2013-02-20 22:57:00,19.9,14.7,30.35,ESE,120,6.0,7.0,80,0.00,,,0.00,Wunderground v.1.15,2013-02-21 04:57:00,
2013-02-20 23:00:00,19.9,15.0,30.35,ESE,116,5.0,5.0,81,0.00,,,0.00,Wunderground v.1.15,2013-02-21 05:00:00,
2013-02-20 23:01:00,19.9,15.0,30.35,SE,142,5.0,6.0,81,0.00,,,0.00,Wunderground v.1.15,2013-02-21 05:01:00,
2013-02-20 23:03:00,19.9,15.0,30.35,SE,126,5.0,7.0,81,0.00,,,0.00,Wunderground v.1.15,2013-02-21 05:03:00,
2013-02-20 23:09:00,19.8,14.9,30.36,ESE,117,4.0,7.0,81,0.00,,,0.00,Wunderground v.1.15,2013-02-21 05:09:00,
2013-02-20 23:14:00,19.7,14.8,30.36,SE,137,4.0,7.0,81,0.00,,,0.00,Wunderground v.1.15,2013-02-21 05:14:00,
2013-02-20 23:16:00,19.7,14.5,30.36,SE,134,4.0,7.0,80,0.00,,,0.00,Wunderground v.1.15,2013-02-21 05:16:00,
2013-02-20 23:22:00,19.6,14.7,30.36,SE,130,4.0,7.0,81,0.00,,,0.00,Wunderground v.1.15,2013-02-21 05:22:00,
2013-02-20 23:27:00,19.6,14.7,30.35,SE,126,5.0,7.0,81,0.00,,,0.00,Wunderground v.1.15,2013-02-21 05:27:00,
2013-02-20 23:33:00,19.6,14.4,30.35,SE,127,5.0,7.0,80,0.00,,,0.00,Wunderground v.1.15,2013-02-21 05:33:00,
2013-02-20 23:38:00,19.5,14.6,30.35,SE,127,5.0,7.0,81,0.00,,,0.00,Wunderground v.1.15,2013-02-21 05:38:00,
2013-02-20 23:45:00,19.3,14.4,30.35,ESE,121,5.0,7.0,81,0.00,,,0.00,Wunderground v.1.15,2013-02-21 05:45:00,
2013-02-20 23:51:00,19.2,14.3,30.35,ESE,123,5.0,7.0,81,0.00,,,0.00,Wunderground v.1.15,2013-02-21 05:51:00,
2013-02-20 23:56:00,19.1,14.2,30.35,SE,133,4.0,7.0,81,0.00,,,0.00,Wunderground v.1.15,2013-02-21 05:56:00,